K6DJR Weather Reports


time (UTC)temp
F
wind
direction
speed
knots
gust
knots
rain 1hr
in
rain 24hr
in
rain mn
in
humidity
%
barometer
mb
20260504193016 65 349 1.7 7.0 0.00 0.00 0.00 39 1006.3
20260504191522 65 180 2.6 9.6 0.00 0.00 0.00 38 1006.3
20260504190027 65 209 4.3 12.2 0.00 0.00 0.00 39 1006.3
20260504184508 65 360 3.5 13.0 0.00 0.00 0.00 38 1006.6
20260504183010 65 235 3.5 11.3 0.00 0.00 0.00 39 1006.6
20260504181518 63 315 2.6 10.4 0.00 0.00 0.00 42 1006.8
20260504180022 61 9 2.6 9.6 0.00 0.00 0.00 44 1006.9
20260504174522 60 360 1.7 7.0 0.00 0.00 0.00 45 1007.0
20260504173010 60 255 1.7 6.1 0.00 0.00 0.00 44 1006.9
20260504171516 60 360 1.7 7.8 0.00 0.00 0.00 44 1007.0
20260504081513 41 360 0.9 2.6 0.00 0.00 0.00 73 1009.3
20260504050010 37 360 0.0 2.6 0.00 0.00 0.00 66 1009.2
20260504044514 37 80 0.9 2.6 0.00 0.00 0.00 66 1009.2
20260504043029 37 360 0.0 1.7 0.00 0.00 0.00 67 1009.4
20260504041524 37 360 0.0 1.7 0.00 0.00 0.00 69 1009.3
20260504040015 37 62 0.9 2.6 0.00 0.00 0.00 68 1009.3
20260504034511 37 360 0.0 2.6 0.00 0.00 0.00 69 1009.1
20260504033016 37 360 0.0 2.6 0.00 0.00 0.00 66 1009.2
20260504031521 38 360 0.9 2.6 0.00 0.00 0.00 66 1009.1
20260504030026 38 360 0.9 2.6 0.00 0.00 0.00 65 1009.1
20260504024510 38 360 0.0 2.6 0.00 0.00 0.00 67 1009.2
20260504023015 38 360 0.9 1.7 0.00 0.01 0.00 67 1009.3
20260504021520 38 360 0.0 2.6 0.00 0.01 0.00 66 1009.3
20260504020020 38 360 0.9 3.5 0.00 0.01 0.00 65 1009.2
20260504014534 39 360 1.7 2.6 0.00 0.02 0.00 65 1009.0
20260504013017 39 360 0.0 3.5 0.00 0.05 0.00 66 1008.9
20260504011514 41 34 1.7 3.5 0.00 0.06 0.00 62 1008.9
20260504010020 43 360 0.0 2.6 0.00 0.06 0.00 56 1008.9
20260504004524 43 360 0.0 2.6 0.00 0.07 0.00 55 1008.6
20260504003025 43 360 0.0 2.6 0.00 0.07 0.00 56 1008.4
20260504001512 44 360 0.0 2.6 0.00 0.07 0.00 56 1008.3
20260504000017 45 360 0.0 3.5 0.00 0.07 0.00 50 1008.1
20260503234523 46 360 0.9 4.3 0.00 0.07 0.00 49 1007.9
20260503233021 46 360 2.6 7.8 0.00 0.07 0.00 47 1007.8
20260503231525 46 360 1.7 10.4 0.00 0.07 0.00 47 1007.8
20260503230016 46 360 1.7 8.7 0.00 0.07 0.00 48 1007.6
20260503224517 47 144 2.6 7.8 0.00 0.07 0.00 47 1007.5
20260503223023 47 155 4.3 13.0 0.00 0.07 0.00 45 1007.5
20260503221524 47 174 1.7 9.6 0.00 0.07 0.00 46 1007.3
20260503220026 47 15 2.6 8.7 0.00 0.07 0.00 47 1007.3
20260503214538 47 187 2.6 11.3 0.00 0.07 0.00 45 1007.1
20260503213022 47 22 3.5 13.0 0.00 0.07 0.00 45 1007.3
20260503211523 47 360 4.3 10.4 0.00 0.07 0.00 45 1007.1
20260503210024 48 192 2.6 13.9 0.00 0.08 0.00 45 1007.0
20260503204530 48 237 3.5 14.8 0.00 0.11 0.00 44 1006.9
20260503203018 48 161 1.7 17.4 0.00 0.15 0.00 44 1006.9
20260503201503 48 19 2.6 12.2 0.00 0.26 0.00 44 1006.8
20260503200007 49 244 3.5 10.4 0.00 0.26 0.00 44 1006.8
20260503194513 48 323 3.5 10.4 0.00 0.26 0.00 46 1007.0